www.pogodaiklimat.ru

Погода и климат >> Архив погоды >> Россия >> Дагестан >> Сергокала


ПОГОДА в Сергокале

  • Прогноз погоды в Сергокале
  • Монитор погоды в Сергокале

АРХИВ ПОГОДЫ в Сергокале

Время (UTC), дата Ветер
(напр.,м/с)
 
Видим.   Явления Облачность Т
(С)
Тd
(С)
f
(%)
Тe
(С)
Тes
(С)
Комфортность P
(гПа)
Po
(гПа)
Тmin
(С)
Tmax
(С)
R
(мм)
R24
(мм)
S
(см)
21 18.08 З 2 10 км 3/0
[Ac lent]
+21.3 +9.3 46 +23 +23 комфорт 1011.0 952.7
00 19.08 ЮЗ 3 10 км ясно +19.7 +9.6 52 +21 +21 комфорт 1012.0 953.4
03 19.08 ЮЗ 3 20 км ясно +21.1 +9.7 48 +22 +23 комфорт 1013.2 954.8 +19.4
06 19.08 ЮВ 5 20 км ясно +31.0 +1.9 16 +28 +34 жарко 1011.9 955.3
09 19.08 В 7-11
{14}
20 км ясно +32.2 +6.4 20 +30 +35 жарко 1011.7 955.4
12 19.08 В 6
{13}
20 км ясно +30.4 +11.2 31 +31 +34 жарко 1012.2 955.6
15 19.08 ЮВ 6
{11}
20 км ясно +28.6 +8.3 28 +28 +28 жарко 1013.3 956.3 +32.4
18 19.08 ЮЗ 3 10 км ясно +22.7 +11.2 48 +25 +25 комфорт 1015.3 957.1
21 19.08 ЮЗ 2 10 км ясно +21.7 +11.4 52 +24 +24 комфорт 1015.6 957.2
00 20.08 СЗ 2 10 км ясно +20.6 +9.6 49 +23 +23 комфорт 1016.0 957.4
03 20.08 ЮЗ 5 20 км ясно +22.4 +6.4 35 +23 +23 комфорт 1016.2 957.8 +18.8
06 20.08 В 4
{11}
20 км ясно +30.6 +7.7 24 +30 +36 жарко 1014.8 958.0
09 20.08 В 5
{10}
20 км ясно +31.9 +9.2 25 +31 +40 жарко 1014.0 957.6
12 20.08 В 5
{11}
20 км ясно +31.2 +10.7 28 +31 +36 жарко 1013.4 956.9
15 20.08 В 4 20 км ясно +26.9 +15.7 50 +30 +30 душно 1014.0 956.8 +32.2
18 20.08 ЮЗ 2 10 км ясно +22.5 +12.2 52 +25 +25 комфорт 1015.9 957.6
21 20.08 ЮЗ 4 10 км ясно +22.8 +10.9 47 +25 +25 комфорт 1015.5 957.3
00 21.08 ЮЗ 2 10 км ясно +22.3 +9.4 44 +24 +24 комфорт 1014.8 956.5
03 21.08 З 1 20 км ясно +20.6 +10.0 51 +23 +24 комфорт 1015.5 956.9 +18.6
06 21.08 В 1 20 км ясно +29.5 +10.2 30 +30 +41 жарко 1013.8 956.9
09 21.08 В 7-11
{12}
20 км ясно +32.5 +10.4 26 +32 +37 жарко 1011.7 955.5
12 21.08 В 7
{12}
20 км ясно +31.1 +5.4 20 +29 +32 жарко 1011.4 954.9
15 21.08 В 3
{10}
20 км ясно +28.6 +5.7 23 +27 +28 жарко 1011.2 954.2 +34.0
18 21.08 ЮЗ 3 10 км ясно +23.4 +9.2 40 +25 +25 комфорт 1012.1 954.2
21 21.08 ЮЗ 3 10 км ясно +22.5 +9.6 44 +24 +24 комфорт 1011.7 953.6
00 22.08 З 2 10 км ясно +20.8 +7.4 42 +23 +23 комфорт 1011.4 953.0
03 22.08 ЮЗ 4 20 км ясно +22.2 +7.8 40 +23 +24 комфорт 1011.4 953.3 +19.9
06 22.08 В 3 20 км ясно +28.7 +8.4 28 +28 +36 жарко 1010.1 953.2
09 22.08 В 5 20 км ясно +31.2 +6.8 22 +30 +38 жарко 1008.9 952.6
12 22.08 В 5 20 км ясно +30.3 +10.9 30 +30 +35 жарко 1008.8 952.4
15 22.08 В 2 20 км ясно +26.6 +14.1 46 +29 +29 жарко 1009.4 952.3 +31.8
18 22.08 З 2 10 км ясно +22.5 +13.0 55 +25 +25 комфорт 1011.4 953.4
21 22.08 З 2 10 км ясно +22.1 +11.3 50 +24 +24 комфорт 1011.3 953.2
00 23.08 ЮЗ 3 10 км ясно +21.2 +10.2 49 +23 +23 комфорт 1011.2 952.9
03 23.08 ЮЗ 3 20 км ясно +23.1 +9.3 41 +25 +25 комфорт 1010.9 953.0 +20.4
06 23.08 В 3 20 км 1/0
[Ac trans]
+30.2 +11.3 31 +31 +38 жарко 1009.8 953.3
09 23.08 В 7-13
{13}
20 км 1/1 600 м
[Sc]
+33.3 +9.1 23 +32 +36 жарко 1008.9 953.0
12 23.08 В 5
{13}
20 км 3/1 600 м
[Sc Ac trans Ci fib]
+32.1 +10.4 26 +32 +35 жарко 1008.3 952.1
15 23.08 В 3 20 км 3/1 600 м
[Sc Ac trans]
+28.2 +9.7 31 +28 +28 жарко 1008.7 951.9 +33.3
18 23.08 З 2 10 км 3/1 600 м
[Sc Ac trans]
+23.8 +11.6 46 +25 +25 комфорт 1010.8 953.1
21 23.08 З 3 10 км 3/1 600 м
[Sc Ac trans]
+23.4 +12.1 49 +26 +26 жарко 1010.9 953.1
00 24.08 ЮЗ 2 10 км 3/3 600 м
[Sc]
+23.1 +9.9 43 +25 +25 комфорт 1011.0 953.1
03 24.08 СЗ 1 20 км 6/5 600 м
[Cu Sc Ac trans]
+22.5 +10.3 46 +24 +25 комфорт 1012.5 954.3 +22.0
06 24.08 СВ 4 20 км 8/3 600 м
[Sc Ac trans Ci fib]
+31.4 +9.1 25 +31 +34 жарко 1010.8 954.4
09 24.08 СВ 2 20 км 9/5 600 м
[Sc Ac trans Ci fib]
+31.5 +13.4 33 +33 +37 жарко 1010.3 954.1
12 24.08 В 2 20 км 9/6 600 м
[Sc Ci fib]
+29.6 +14.6 40 +32 +35 душно 1010.3 953.7
15 24.08 В 3 20 км 8/4 600 м
[Sc Ac trans Ci fib]
+27.2 +18.4 59 +32 +32 очень
душно
1010.6 953.7 +31.8
18 24.08 ЮЗ 3 10 км 8/0
[Ac trans]
+24.0 +13.8 53 +26 +26 жарко 1012.7 954.9
21 24.08 Ю 4 10 км 1/0
[Ac trans]
+23.3 +14.2 57 +27 +27 душно 1012.4 954.6
00 25.08 ЮЗ 4 10 км 10/10 600 м
[Sc]
+24.5 +7.2 33 +25 +25 комфорт 1012.3 954.5
03 25.08 З 1 20 км 9/1 600 м
[Sc Ac trans Ci fib]
+22.6 +6.9 36 +23 +24 комфорт 1014.1 955.9 +22.5
06 25.08 СВ 1 20 км 3/3 600 м
[Cu hum]
+28.1 +11.9 37 +29 +37 жарко 1013.6 956.5
09 25.08 В 5 20 км 3/0
[Ac lent]
+29.9 +13.5 37 +31 +38 жарко 1011.9 953.3
12 25.08 В 5
{11}
20 км 9/9 600 м
[Frnb]
+27.3 +9.9 34 +28 +28 жарко 1013.2 956.0
15 25.08 В 2 20 км 9/9 600 м
[Sc]
+24.6 +15.8 58 +28 +28 душно 1013.5 955.9 +30.8
18 25.08 З 1 10 км 10/10 600 м
[Sc]
+22.5 +13.1 55 +25 +25 комфорт 1015.4 957.5

 

Местоположение метеостанции Сергокала (Дагестан, Россия): широта 42.45 долгота 47.67 высота над уровнем моря 518 м.

В архиве по умолчанию представлена погода в Сергокале за последнюю неделю. Архивные данные за месяц целиком и за предыдущие месяцы, начиная с января 2011 года, Вы можете получить, выбрав интересующий диапазон дат из раскрывающегося списка и нажав кнопку "Ввод!".


*Определитесь, кто Вы:
робот инопланетянин человек

Внимание! Время в таблицах - всемирное. Для получения местного времени необходимо прибавить поправку, которая равна 3 ч.

Смотрите также архив погоды в соседних городах и на ближайших метеорологических станциях:

Погода в Изберге (Дагестан, Россия) (22 км)
Погода в Куппе (Дагестан, Россия) (47 км)
Погода в Гунибе (Дагестан, Россия) (58 км)
Погода в Кумухе (Дагестан, Россия) (58 км)
Погода в Буйнакске (Дагестан, Россия) (61 км)
Погода в Махачкале (Дагестан, Россия) (65 км)
Погода в Дербенте (Дагестан, Россия) (67 км)
Погода в Хунзахе (Дагестан, Россия) (81 км)
Погода в Касумкенте (Дагестан, Россия) (95 км)
Погода в Ахты (Дагестан, Россия) (109 км)

Пояснения к столбцам:

Ветер - указаны скорость ветра в м/с - средняя за 10 мин, порывы в срок и между сроками (в фигурных скобках) и направление, откуда дует ветер: С - северный, СВ - северо-восточный, В - восточный, ЮВ - юго-восточный, Ю - южный, ЮЗ - юго-западный, З - западный, СЗ - северо-западный.
Видимость - горизонтальная дальность видимости в метрах или километрах. При видимости от 1 до 10 км при отсутствии осадков обычно наблюдается дымка, при ухудшении видимости до 1 км и менее - туман. В сухую погоду видимость может ухудшаться дымом, пылью или мглою.
Явления - указаны атмосферные явления, наблюдавшиеся в срок или в последний час перед сроком; фигурными скобками обозначены явления, наблюдавшиеся между сроками (за 1-3 часа до срока); квадратными скобками обозначены град или гололедные отложения с указанием их диаметра в мм.
Облачность - указаны через наклонную черту общая и нижняя облачность в баллах и высота нижней границы облаков в метрах; квадратными скобками обозначены формы облаков: Ci - перистые, Cs - перисто-слоистые, Cc - перисто-кучевые, Ac - высококучевые, As - высокослоистые, Sc - слоисто-кучевые, Ns - слоисто-дождевые, Cu - кучевые, Cb - кучево-дождевые. Подробнее классификацию облаков см. в Атласе облаков (PDF).
T - Температура воздуха - температура, измеренная на высоте 2 м над землей.
Td - Температура точки росы - температура, при понижении до которой содержащийся в воздухе водяной пар достигнет насыщения.
f - Относительная влажность воздуха - влажноcть воздуха, измеренная на высоте 2 м над землей.
Te - Эффективная температура - температура, которую ощущает одетый по сезону человек в тени. Характеристика душности погоды. При расчете учитывается влияние влажности воздуха и скорости ветра на теплоощущения человека.
Tes - Эффективная температура на солнце - температура, которую ощущает человек, с поправкой на солнечный нагрев. Характеристика знойности погоды. Зависит от высоты солнца над горизонтом, облачности и скорости ветра. Ночью, в пасмурную погоду, а также при ветре 12 м/с и более поправка равна нулю.
P - Атмосферное давление - приведенное к уровню моря атмосферное давление.
Po - Атмосферное давление - измеренное на уровне метеостанции атмосферное давление.
Tmin - Минимальная температура - минимум температуры воздуха на высоте 2 м над землей.
Tmax - Максимальная температура - максимум температуры воздуха на высоте 2 м над землей.
R - Количество осадков - Количество выпавших осадков за период времени, мм. При наведении курсора мыши на число - период времени, за который выпало указанное количество осадков.
R24 - Количество осадков - Количество выпавших осадков за 24 часа, мм.
S - Снежный покров - Высота снежного покрова, см. При наведении курсора мыши на число - состояние снежного покрова и степень покрытия местности в баллах.